Regional Weather Roundup
Issued by NWS State College, PA

Home | Current Version | Previous Version | Text Only | Print | Product List | Glossary On
Versions: 1 2 3 4 5 6 7 8 9 10 11 12 13 14 15 16 17 18 19 20 21 22 23 24 25 26 27 28 29 30 31 32 33 34 35 36 37 38 39 40 41 42 43 44 45 46 47 48 49 50
000
ASUS41 KCTP 310510
RWRCTP

REGIONAL WEATHER ROUNDUP
NATIONAL WEATHER SERVICE STATE COLLEGE PA
100 AM EDT SUN JUL 31 2016

Note: "fair" indicates few or no clouds below 12,000 feet with no
significant weather and/or obstructions to visibility.

* = STATION THAT DOES NOT REPORT PRECIPITATION /E.G. RAIN...SNOW...ETC/
    THUNDER OR FOG.

PAZ002>004-007>009-013>016-020>023-029>032-310600-
WESTERN PENNSYLVANIA

CITY           SKY/WX    TMP DP  RH WIND       PRES   REMARKS
ERIE           PTCLDY    72  66  81 CALM      29.98R
MEADVILLE      CLEAR     67  65  93 CALM      30.01R
FRANKLIN*      CLEAR     66  63  88 SE3       30.02F
NEW CASTLE     FOG       68  67  96 CALM      29.99F VSB 1/4
BEAVER COUNTY  NOT AVBL
BUTLER*        CLOUDY    70  66  88 CALM      30.02F
PITTSBURGH INT CLOUDY    68  65  90 CALM      29.99S
PITTSBURGH     PTCLDY    70  67  90 CALM      29.99S
INDIANA*       MOCLDY    68  68 100 CALM      30.03F FOG
LATROBE        FOG       68  68 100 CALM      30.00S VSB 3/4
WASHINGTON CO* CLEAR     66  64  94 CALM      30.00S
$$

PAZ004>006-010>012-017>019-024>028-033>037-041-042-045-046-049>053-310600-
CENTRAL PENNSYLVANIA

CITY           SKY/WX    TMP DP  RH WIND       PRES   REMARKS
BRADFORD       CLOUDY    66  63  90 E3        30.05S
DUBOIS         MOCLDY    65  63  93 NE3       30.02S FOG
CLEARFIELD     NOT AVBL
JOHNSTOWN      CLOUDY    68  64  87 CALM      30.04S
ALTOONA        CLOUDY    70  70 100 CALM      30.02S FOG
STATE COLLEGE  CLOUDY    69  68  98 CALM      30.00S FOG
WILLIAMSPORT   CLOUDY    71  67  87 E10       29.97F
SELINSGROVE    CLOUDY    73  71  93 SE3       29.99S
FT INDIANTOWN  CLOUDY    70  70 100 N3        29.99S
CAPITAL CITY   CLOUDY    73  69  87 SE7       29.98S FOG
HARRISBURG     CLOUDY    72  71  97 SE8       29.97F
YORK           CLOUDY    71  69  93 E5        29.98F
$$

PAZ038>040-043-044-047-048-054-055-060>062-067>071-310600-
EASTERN PENNSYLVANIA

CITY           SKY/WX    TMP DP  RH WIND       PRES   REMARKS
SCRANTON       CLOUDY    70  67  90 NE5       30.03S
MOUNT POCONO   FOG       66  65  96 SE9       30.08S VSB 1
ALLENTOWN      CLOUDY    72  69  90 E5        30.01F
QUAKERTOWN*    CLOUDY    73  73 100 CALM      30.02F
READING        CLOUDY    72  68  87 CALM      29.99S
LANCASTER      CLOUDY    70  69  97 SE3       29.99S
COATESVILLE    CLOUDY    72  72 100 E5        30.02S
POTTSTOWN      CLOUDY    72  72 100 E3        30.01F FOG
BLUE BELL      PTCLDY    72  72 100 CALM      29.99F
DOYLESTOWN     CLOUDY    72  72 100 CALM      30.00F
WILLOW GROVE   NOT AVBL
NORTH PHILA    CLOUDY    76  74  93 SE8       30.01F
PHILADELPHIA   LGT RAIN  76  73  91 E9        29.99F
$$




USA.gov is the U.S. government's official web portal to all federal, state and local government web resources and services.